contact:dominique.lefevre@mio.osupytheas.fr, maurice.libes@osupytheas.fr, didier.mallarino@osupytheas.fr
Project:EMSO http://www.emso-fr.org/EMSO-France
Depth: 2436.0 m
Title:EMSO Ligure Ouest : Data MII capteur AQUADOPP
Date,Latitude,Longitude,X_East,Y_North,Z_Up,Amplitude_X,Amplitude_Y,Amplitude_Z,Batterie,SoundSpeed,Heading,Pitch,Roll,Pressure,TIS,Speed,Direction
, degrees North, degrees East, m.s-1, m.s-1,m.s-1, 1, 1, 1, Volt, m.s-1, degree, degree, degree, dbar, degree_C, m.s-1, degree
2020-01-11T00:04:03,42.805,6.029,-0.015,0.017,-0.004,107.0,114.0,104.0,13.4,1505.3,323.5,-0.7,1.8,2470.221,13.33,0.022,318.6
2020-01-11T00:07:03,42.805,6.029,-0.014,0.002,-0.019,109.0,113.0,103.0,13.3,1505.3,324.6,-0.7,1.8,2470.202,13.33,0.014,278.1
2020-01-11T00:10:03,42.805,6.029,-0.033,0.014,-0.043,107.0,113.0,105.0,13.4,1505.3,325.7,-0.7,1.8,2470.221,13.33,0.035,293.0
2020-01-11T00:13:03,42.805,6.029,-0.024,0.02,-0.013,106.0,113.0,104.0,13.4,1505.3,328.4,-0.7,1.8,2470.186,13.33,0.031,309.8
2020-01-11T00:16:03,42.805,6.029,-0.017,0.013,-0.032,109.0,114.0,104.0,13.4,1505.4,323.9,-0.7,1.8,2470.215,13.34,0.021,307.4
2020-01-11T00:19:03,42.805,6.029,-0.019,0.021,-0.005,108.0,113.0,103.0,13.4,1505.4,323.9,-0.8,1.8,2470.2,13.34,0.028,317.9
2020-01-11T00:22:03,42.805,6.029,-0.022,0.0,-0.009,106.0,113.0,104.0,13.3,1505.4,326.7,-0.7,1.8,2470.179,13.34,0.022,270.0
2020-01-11T00:25:03,42.805,6.029,0.002,0.019,-0.022,108.0,111.0,104.0,13.3,1505.4,324.5,-0.7,1.9,2470.14,13.34,0.019,6.0
2020-01-11T00:28:03,42.805,6.029,0.002,0.012,-0.027,106.0,112.0,103.0,13.4,1505.4,325.3,-0.8,1.8,2470.153,13.34,0.012,9.5
2020-01-11T00:31:03,42.805,6.029,-0.009,0.017,-0.008,110.0,113.0,102.0,13.4,1505.4,325.6,-0.7,1.8,2470.144,13.34,0.019,332.1
2020-01-11T00:34:03,42.805,6.029,-0.008,0.021,0.008,105.0,114.0,104.0,13.4,1505.4,324.7,-0.7,1.8,2470.191,13.34,0.022,339.1
2020-01-11T00:37:03,42.805,6.029,-0.023,0.025,-0.009,106.0,114.0,105.0,13.4,1505.4,324.6,-0.7,1.8,2470.166,13.34,0.033,317.4
2020-01-11T00:40:03,42.805,6.029,-0.023,0.03,0.005,106.0,115.0,102.0,13.4,1505.4,324.1,-0.7,1.8,2470.151,13.34,0.037,322.5
2020-01-11T00:43:03,42.805,6.029,0.01,0.029,-0.034,106.0,114.0,104.0,13.3,1505.4,324.6,-0.7,1.8,2470.171,13.34,0.03,19.0
2020-01-11T00:46:03,42.805,6.029,-0.022,0.033,0.006,108.0,113.0,104.0,13.4,1505.4,325.2,-0.7,1.9,2470.136,13.34,0.039,326.3
2020-01-11T00:49:03,42.805,6.029,-0.02,0.007,-0.018,109.0,114.0,106.0,13.4,1505.4,327.0,-0.7,1.8,2470.153,13.34,0.021,289.3
2020-01-11T00:52:03,42.805,6.029,-0.03,0.021,-0.032,113.0,113.0,105.0,13.4,1505.4,326.4,-0.7,1.8,2470.163,13.34,0.036,305.0
2020-01-11T00:55:03,42.805,6.029,0.009,0.013,-0.026,107.0,115.0,106.0,13.3,1505.4,326.0,-0.7,1.8,2470.124,13.34,0.015,34.7
2020-01-11T00:58:03,42.805,6.029,-0.013,0.018,-0.011,107.0,114.0,105.0,13.3,1505.4,323.3,-0.7,1.9,2470.119,13.34,0.022,324.2
2020-01-11T01:04:03,42.805,6.029,-0.011,0.019,0.008,110.0,115.0,105.0,13.4,1505.3,323.3,-0.7,1.8,2470.208,13.32,0.021,329.9
2020-01-11T01:07:02,42.805,6.029,-0.02,0.035,-0.044,108.0,116.0,106.0,13.3,1505.3,324.5,-0.7,1.8,2470.162,13.33,0.04,330.3
2020-01-11T01:10:03,42.805,6.029,-0.05,0.031,-0.051,108.0,116.0,104.0,13.4,1505.3,325.2,-0.7,1.8,2470.176,13.33,0.058,301.8
2020-01-11T01:13:03,42.805,6.029,-0.024,0.035,0.004,109.0,115.0,105.0,13.3,1505.3,326.7,-0.7,1.8,2470.183,13.33,0.042,325.6
2020-01-11T01:16:03,42.805,6.029,-0.026,0.023,-0.03,109.0,115.0,105.0,13.4,1505.3,324.0,-0.7,1.8,2470.155,13.33,0.034,311.5
2020-01-11T01:19:03,42.805,6.029,-0.035,0.022,-0.04,108.0,116.0,103.0,13.3,1505.4,328.1,-0.7,1.8,2470.15,13.34,0.041,302.2
2020-01-11T01:22:03,42.805,6.029,-0.008,0.025,-0.007,111.0,115.0,104.0,13.3,1505.4,328.3,-0.7,1.8,2470.162,13.34,0.026,342.3
2020-01-11T01:25:03,42.805,6.029,-0.018,0.046,-0.02,109.0,115.0,104.0,13.4,1505.4,323.0,-0.7,1.8,2470.135,13.34,0.049,338.6
2020-01-11T01:28:03,42.805,6.029,-0.018,0.034,0.008,108.0,115.0,104.0,13.3,1505.4,327.6,-0.7,1.8,2470.161,13.34,0.038,332.1
2020-01-11T01:31:03,42.805,6.029,-0.027,0.022,-0.055,109.0,115.0,104.0,13.4,1505.4,324.6,-0.7,1.9,2470.116,13.34,0.034,309.2
2020-01-11T01:34:03,42.805,6.029,-0.012,0.009,-0.024,108.0,114.0,105.0,13.4,1505.4,325.9,-0.7,1.8,2470.135,13.34,0.015,306.9
2020-01-11T01:37:03,42.805,6.029,-0.027,0.014,-0.023,111.0,115.0,104.0,13.4,1505.4,325.4,-0.7,1.8,2470.142,13.34,0.03,297.4
2020-01-11T01:40:03,42.805,6.029,-0.002,0.012,0.003,107.0,116.0,105.0,13.4,1505.4,325.0,-0.7,1.8,2470.147,13.34,0.012,350.5
2020-01-11T01:43:03,42.805,6.029,-0.002,0.02,0.016,108.0,115.0,104.0,13.4,1505.3,325.3,-0.7,1.8,2470.125,13.33,0.02,354.3
2020-01-11T01:46:03,42.805,6.029,-0.01,0.026,-0.041,107.0,115.0,106.0,13.4,1505.4,323.7,-0.7,1.8,2470.167,13.34,0.027,339.0
2020-01-11T01:49:03,42.805,6.029,0.01,0.016,-0.022,110.0,116.0,105.0,13.4,1505.3,327.7,-0.7,1.8,2470.173,13.33,0.018,32.0
2020-01-11T01:52:03,42.805,6.029,-0.009,0.018,-0.011,109.0,116.0,105.0,13.4,1505.3,325.7,-0.7,1.8,2470.179,13.33,0.02,333.4
2020-01-11T01:55:03,42.805,6.029,-0.019,0.031,0.003,109.0,117.0,104.0,13.4,1505.3,325.3,-0.7,1.8,2470.175,13.33,0.036,328.5
2020-01-11T01:58:03,42.805,6.029,-0.017,0.015,-0.048,109.0,116.0,105.0,13.4,1505.3,325.9,-0.7,1.8,2470.151,13.33,0.022,311.4
2020-01-11T02:04:03,42.805,6.029,-0.014,0.03,-0.04,110.0,117.0,104.0,13.4,1505.3,326.0,-0.7,1.9,2470.156,13.31,0.033,335.0
2020-01-11T02:07:03,42.805,6.029,-0.027,0.018,-0.038,108.0,116.0,104.0,13.4,1505.3,327.0,-0.7,1.9,2470.139,13.32,0.032,303.7
2020-01-11T02:10:03,42.805,6.029,-0.022,0.047,-0.002,107.0,115.0,106.0,13.4,1505.3,326.9,-0.7,1.8,2470.167,13.33,0.051,334.9
2020-01-11T02:13:03,42.805,6.029,0.009,0.032,-0.009,108.0,115.0,105.0,13.4,1505.3,326.5,-0.7,1.8,2470.138,13.33,0.033,15.7
2020-01-11T02:16:03,42.805,6.029,-0.014,0.036,-0.018,110.0,115.0,105.0,13.3,1505.3,326.6,-0.7,1.8,2470.161,13.33,0.038,338.8
2020-01-11T02:19:03,42.805,6.029,-0.016,0.024,-0.007,109.0,116.0,104.0,13.4,1505.3,328.5,-0.7,1.9,2470.19,13.33,0.028,326.3
2020-01-11T02:22:03,42.805,6.029,-0.014,0.018,-0.043,109.0,116.0,104.0,13.3,1505.3,327.7,-0.7,1.8,2470.176,13.33,0.022,322.1
2020-01-11T02:25:03,42.805,6.029,-0.011,0.02,-0.038,108.0,115.0,104.0,13.3,1505.3,324.1,-0.7,1.8,2470.164,13.33,0.022,331.2
2020-01-11T02:28:03,42.805,6.029,-0.01,0.019,0.005,110.0,114.0,105.0,13.3,1505.3,325.0,-0.7,1.8,2470.182,13.33,0.021,332.2
2020-01-11T02:31:03,42.805,6.029,-0.024,0.026,-0.031,109.0,117.0,105.0,13.4,1505.3,325.9,-0.7,1.8,2470.251,13.33,0.035,317.3
2020-01-11T02:34:03,42.805,6.029,-0.02,0.026,0.006,109.0,115.0,105.0,13.4,1505.3,327.2,-0.7,1.8,2470.158,13.33,0.032,322.4
2020-01-11T02:37:03,42.805,6.029,-0.014,0.038,-0.035,109.0,116.0,105.0,13.4,1505.3,323.8,-0.7,1.8,2470.139,13.33,0.04,339.8
2020-01-11T02:40:03,42.805,6.029,-0.002,0.01,0.0,109.0,115.0,104.0,13.4,1505.3,327.1,-0.7,1.9,2470.19,13.33,0.01,348.7
2020-01-11T02:43:03,42.805,6.029,0.005,0.013,-0.021,106.0,117.0,104.0,13.4,1505.3,328.4,-0.7,1.8,2470.228,13.33,0.013,21.0
2020-01-11T02:46:03,42.805,6.029,-0.02,0.02,-0.012,107.0,115.0,105.0,13.4,1505.3,325.3,-0.7,1.8,2470.149,13.33,0.028,315.0
2020-01-11T02:49:03,42.805,6.029,-0.029,0.025,-0.014,110.0,116.0,104.0,13.4,1505.3,325.2,-0.7,1.8,2470.176,13.33,0.038,310.8
2020-01-11T02:52:03,42.805,6.029,-0.024,0.033,-0.044,108.0,114.0,104.0,13.3,1505.3,328.1,-0.7,1.8,2470.155,13.33,0.04,324.0
2020-01-11T02:55:03,42.805,6.029,-0.038,0.037,-0.007,108.0,116.0,103.0,13.3,1505.3,324.0,-0.7,1.8,2470.169,13.33,0.053,314.2
2020-01-11T03:04:02,42.805,6.029,-0.019,0.037,-0.028,109.0,115.0,104.0,13.4,1505.2,324.8,-0.8,1.8,2470.21,13.3,0.041,332.8
2020-01-11T03:07:03,42.805,6.029,-0.005,0.035,0.012,108.0,115.0,104.0,13.4,1505.3,327.1,-0.7,1.9,2470.196,13.31,0.035,351.9
2020-01-11T03:10:03,42.805,6.029,-0.024,0.0,-0.053,107.0,113.0,104.0,13.4,1505.3,323.8,-0.7,1.8,2470.236,13.32,0.024,270.0
2020-01-11T03:13:03,42.805,6.029,-0.021,0.032,-0.002,108.0,115.0,103.0,13.3,1505.3,324.8,-0.7,1.8,2470.239,13.32,0.038,326.7
2020-01-11T03:16:03,42.805,6.029,-0.025,0.032,-0.029,109.0,113.0,104.0,13.3,1505.3,326.4,-0.7,1.8,2470.259,13.33,0.04,322.0
2020-01-11T03:19:03,42.805,6.029,-0.024,0.045,0.001,109.0,115.0,102.0,13.3,1505.3,326.6,-0.7,1.8,2470.215,13.33,0.051,331.9
2020-01-11T03:22:03,42.805,6.029,-0.022,0.023,0.009,107.0,113.0,103.0,13.4,1505.3,325.4,-0.7,1.8,2470.213,13.33,0.031,316.3
2020-01-11T03:25:03,42.805,6.029,-0.02,0.02,-0.054,105.0,115.0,102.0,13.4,1505.3,326.9,-0.7,1.8,2470.23,13.33,0.028,315.0
2020-01-11T03:28:03,42.805,6.029,-0.014,0.013,-0.049,107.0,113.0,103.0,13.4,1505.3,326.5,-0.7,1.9,2470.213,13.33,0.019,312.9
2020-01-11T03:31:03,42.805,6.029,0.004,0.016,-0.014,107.0,114.0,102.0,13.4,1505.3,324.9,-0.7,1.8,2470.243,13.33,0.016,14.0
2020-01-11T03:34:03,42.805,6.029,0.006,0.021,-0.036,106.0,115.0,103.0,13.4,1505.3,323.8,-0.7,1.9,2470.243,13.33,0.021,15.9
2020-01-11T03:37:03,42.805,6.029,-0.002,0.009,-0.008,107.0,113.0,103.0,13.4,1505.3,327.8,-0.7,1.8,2470.205,13.33,0.009,347.5
2020-01-11T03:40:03,42.805,6.029,0.0,0.027,0.004,107.0,113.0,105.0,13.4,1505.3,324.5,-0.7,1.8,2470.182,13.33,0.026,0.0
2020-01-11T03:43:03,42.805,6.029,0.003,0.026,-0.001,107.0,115.0,104.0,13.4,1505.4,324.5,-0.7,1.8,2470.209,13.34,0.026,6.6
2020-01-11T03:46:03,42.805,6.029,-0.015,0.022,-0.034,108.0,116.0,104.0,13.4,1505.4,327.8,-0.7,1.8,2470.273,13.34,0.026,325.7
2020-01-11T03:49:03,42.805,6.029,-0.017,0.042,-0.005,107.0,114.0,104.0,13.4,1505.4,323.6,-0.7,1.8,2470.222,13.34,0.045,338.0
2020-01-11T03:52:03,42.805,6.029,-0.022,-0.003,-0.033,108.0,114.0,105.0,13.4,1505.4,327.2,-0.7,1.8,2470.246,13.34,0.022,262.2
2020-01-11T03:55:03,42.805,6.029,-0.028,0.033,-0.043,109.0,116.0,104.0,13.3,1505.4,324.6,-0.7,1.8,2470.229,13.34,0.043,319.7
2020-01-11T03:58:03,42.805,6.029,-0.031,0.029,-0.014,107.0,115.0,104.0,13.3,1505.3,325.7,-0.7,1.8,2470.23,13.33,0.042,313.1
2020-01-11T04:04:03,42.805,6.029,-0.004,0.015,-0.048,107.0,114.0,104.0,13.4,1505.3,323.8,-0.8,1.8,2470.262,13.31,0.015,345.1
2020-01-11T04:07:03,42.805,6.029,-0.029,0.017,-0.032,107.0,114.0,103.0,13.4,1505.3,327.7,-0.7,1.8,2470.309,13.32,0.033,300.4
2020-01-11T04:10:03,42.805,6.029,-0.017,0.034,-0.028,109.0,117.0,105.0,13.4,1505.3,325.5,-0.7,1.8,2470.282,13.33,0.038,333.4
2020-01-11T04:13:03,42.805,6.029,-0.011,0.02,-0.038,109.0,117.0,104.0,13.3,1505.3,325.2,-0.7,1.9,2470.276,13.33,0.022,331.2
2020-01-11T04:16:03,42.805,6.029,0.006,0.028,-0.02,109.0,115.0,104.0,13.4,1505.3,325.2,-0.7,1.8,2470.263,13.33,0.028,12.1
2020-01-11T04:19:03,42.805,6.029,0.002,0.034,0.031,108.0,115.0,105.0,13.4,1505.3,324.4,-0.7,1.9,2470.261,13.33,0.034,3.4
2020-01-11T04:22:03,42.805,6.029,0.0,0.034,-0.026,110.0,114.0,105.0,13.4,1505.3,326.9,-0.7,1.8,2470.266,13.33,0.034,0.0
2020-01-11T04:25:03,42.805,6.029,-0.016,0.011,-0.057,109.0,114.0,104.0,13.4,1505.3,325.3,-0.7,1.8,2470.263,13.33,0.019,304.5
2020-01-11T04:28:03,42.805,6.029,-0.001,0.035,-0.015,111.0,113.0,103.0,13.4,1505.3,323.6,-0.7,1.9,2470.319,13.33,0.035,358.4
2020-01-11T04:31:03,42.805,6.029,-0.006,0.026,-0.027,111.0,118.0,104.0,13.4,1505.3,328.4,-0.7,1.8,2470.254,13.33,0.026,347.0
2020-01-11T04:34:03,42.805,6.029,0.001,0.046,-0.007,109.0,115.0,105.0,13.4,1505.3,325.9,-0.7,1.8,2470.27,13.33,0.046,1.2
2020-01-11T04:37:03,42.805,6.029,-0.024,0.03,-0.024,109.0,117.0,105.0,13.3,1505.3,324.7,-0.7,1.8,2470.307,13.33,0.038,321.3
2020-01-11T04:40:03,42.805,6.029,-0.021,0.028,0.007,109.0,114.0,105.0,13.4,1505.3,322.9,-0.7,1.8,2470.291,13.33,0.035,323.1
2020-01-11T04:43:03,42.805,6.029,-0.004,0.028,0.0,111.0,117.0,104.0,13.3,1505.3,328.4,-0.7,1.8,2470.271,13.33,0.028,351.9
2020-01-11T04:46:03,42.805,6.029,-0.007,0.038,-0.025,109.0,116.0,105.0,13.3,1505.3,325.4,-0.7,1.8,2470.301,13.33,0.038,349.6
2020-01-11T04:49:03,42.805,6.029,-0.015,0.033,0.002,109.0,116.0,106.0,13.4,1505.3,323.2,-0.7,1.8,2470.309,13.33,0.036,335.6
2020-01-11T04:52:03,42.805,6.029,-0.002,0.049,0.012,110.0,116.0,105.0,13.4,1505.3,328.1,-0.7,1.8,2470.293,13.33,0.049,357.7
2020-01-11T04:55:03,42.805,6.029,-0.014,0.03,-0.028,110.0,116.0,106.0,13.3,1505.3,328.3,-0.7,1.8,2470.315,13.33,0.033,335.0
2020-01-11T04:58:03,42.805,6.029,-0.007,0.02,-0.017,109.0,115.0,106.0,13.4,1505.3,327.2,-0.7,1.8,2470.346,13.33,0.021,340.7
2020-01-11T05:04:02,42.805,6.029,-0.004,0.043,0.006,109.0,117.0,104.0,13.4,1505.3,327.1,-0.7,1.8,2470.367,13.31,0.043,354.7
2020-01-11T05:07:03,42.805,6.029,-0.02,0.026,-0.01,109.0,115.0,106.0,13.4,1505.3,325.5,-0.7,1.8,2470.357,13.32,0.032,322.4
2020-01-11T05:10:03,42.805,6.029,-0.026,0.029,-0.027,109.0,117.0,104.0,13.4,1505.3,324.2,-0.7,1.8,2470.376,13.32,0.038,318.1
2020-01-11T05:13:03,42.805,6.029,-0.012,0.027,-0.008,109.0,116.0,105.0,13.4,1505.3,323.6,-0.7,1.8,2470.379,13.32,0.029,336.0
2020-01-11T05:16:03,42.805,6.029,0.004,0.041,-0.028,108.0,118.0,104.0,13.3,1505.3,326.0,-0.7,1.9,2470.384,13.32,0.041,5.6
2020-01-11T05:19:03,42.805,6.029,-0.021,0.026,-0.043,109.0,115.0,106.0,13.3,1505.3,327.8,-0.7,1.8,2470.337,13.33,0.033,321.1
2020-01-11T05:22:03,42.805,6.029,-0.004,0.048,-0.023,108.0,117.0,104.0,13.3,1505.3,325.2,-0.7,1.9,2470.379,13.33,0.048,355.2
2020-01-11T05:25:03,42.805,6.029,-0.016,0.019,-0.011,108.0,116.0,106.0,13.4,1505.3,326.6,-0.7,1.8,2470.371,13.33,0.024,319.9
2020-01-11T05:28:03,42.805,6.029,-0.014,0.023,0.003,107.0,118.0,104.0,13.4,1505.3,325.3,-0.7,1.8,2470.357,13.33,0.026,328.7
2020-01-11T05:31:03,42.805,6.029,-0.038,0.021,0.015,110.0,115.0,107.0,13.4,1505.3,326.0,-0.7,1.9,2470.345,13.33,0.043,298.9
2020-01-11T05:34:03,42.805,6.029,0.0,0.036,0.031,109.0,117.0,106.0,13.4,1505.3,323.1,-0.7,1.8,2470.39,13.33,0.036,0.0
2020-01-11T05:37:03,42.805,6.029,-0.011,0.029,-0.005,109.0,118.0,106.0,13.3,1505.3,326.0,-0.7,1.9,2470.397,13.33,0.031,339.2
2020-01-11T05:40:03,42.805,6.029,-0.004,0.043,0.0,109.0,115.0,104.0,13.4,1505.3,324.7,-0.7,1.8,2470.38,13.33,0.043,354.7
2020-01-11T05:43:03,42.805,6.029,0.016,0.04,-0.021,111.0,116.0,105.0,13.3,1505.3,326.7,-0.7,1.8,2470.396,13.33,0.043,21.8
2020-01-11T05:46:03,42.805,6.029,-0.011,0.044,-0.018,110.0,116.0,105.0,13.4,1505.3,326.8,-0.7,1.8,2470.377,13.33,0.045,346.0
2020-01-11T05:49:03,42.805,6.029,-0.011,0.032,0.015,110.0,116.0,106.0,13.4,1505.3,325.7,-0.7,1.8,2470.435,13.33,0.033,341.0
2020-01-11T05:52:03,42.805,6.029,-0.009,0.044,-0.01,110.0,117.0,105.0,13.4,1505.3,326.9,-0.7,1.8,2470.369,13.33,0.044,348.4
2020-01-11T05:55:03,42.805,6.029,0.004,0.038,-0.006,110.0,115.0,105.0,13.4,1505.3,326.4,-0.7,1.8,2470.408,13.33,0.038,6.0
2020-01-11T05:58:03,42.805,6.029,-0.02,0.048,-0.034,109.0,119.0,104.0,13.4,1505.3,326.9,-0.7,1.8,2470.358,13.33,0.052,337.4
2020-01-11T06:04:03,42.805,6.029,-0.003,-0.004,-0.018,109.0,117.0,105.0,13.3,1505.3,326.7,-0.7,1.9,2470.428,13.31,0.005,216.9
2020-01-11T06:07:03,42.805,6.029,-0.021,0.021,0.004,109.0,116.0,105.0,13.3,1505.3,323.5,-0.7,1.8,2470.429,13.32,0.029,315.0
2020-01-11T06:10:03,42.805,6.029,0.003,0.024,0.014,111.0,116.0,105.0,13.4,1505.3,324.3,-0.7,1.8,2470.395,13.32,0.024,7.1
2020-01-11T06:13:03,42.805,6.029,0.001,0.021,-0.02,110.0,118.0,106.0,13.4,1505.3,324.5,-0.7,1.8,2470.409,13.33,0.021,2.7
2020-01-11T06:16:03,42.805,6.029,-0.011,0.028,-0.024,110.0,116.0,106.0,13.4,1505.3,325.6,-0.7,1.8,2470.415,13.33,0.03,338.6
2020-01-11T06:19:03,42.805,6.029,0.001,0.014,-0.026,111.0,116.0,107.0,13.4,1505.3,323.3,-0.7,1.8,2470.382,13.33,0.014,4.1
2020-01-11T06:22:03,42.805,6.029,-0.017,0.03,-0.024,111.0,116.0,106.0,13.4,1505.3,326.5,-0.7,1.9,2470.376,13.33,0.034,330.5
2020-01-11T06:25:03,42.805,6.029,-0.003,0.021,-0.004,111.0,117.0,107.0,13.4,1505.3,324.6,-0.7,1.8,2470.387,13.33,0.021,351.9
2020-01-11T06:28:03,42.805,6.029,0.001,0.007,-0.041,111.0,117.0,105.0,13.4,1505.3,327.4,-0.7,1.8,2470.384,13.33,0.007,8.1
2020-01-11T06:31:03,42.805,6.029,0.01,0.017,-0.005,111.0,118.0,106.0,13.4,1505.3,323.7,-0.7,1.8,2470.397,13.33,0.019,30.5
2020-01-11T06:34:03,42.805,6.029,-0.013,0.015,-0.002,110.0,115.0,107.0,13.3,1505.3,327.2,-0.7,1.8,2470.418,13.33,0.019,319.1
2020-01-11T06:37:03,42.805,6.029,-0.013,0.023,-0.051,109.0,115.0,106.0,13.4,1505.3,324.5,-0.7,1.8,2470.398,13.33,0.026,330.5
2020-01-11T06:40:03,42.805,6.029,-0.012,0.026,-0.015,111.0,117.0,107.0,13.4,1505.4,323.3,-0.7,1.8,2470.404,13.34,0.028,335.2
2020-01-11T06:43:03,42.805,6.029,0.004,0.019,-0.037,110.0,117.0,105.0,13.3,1505.4,325.7,-0.7,1.8,2470.434,13.34,0.019,11.9
2020-01-11T06:46:03,42.805,6.029,-0.004,0.001,-0.057,110.0,118.0,107.0,13.4,1505.4,323.3,-0.7,1.8,2470.452,13.34,0.004,284.0
2020-01-11T06:49:03,42.805,6.029,0.004,0.028,-0.025,111.0,117.0,106.0,13.3,1505.4,324.2,-0.7,1.9,2470.388,13.34,0.028,8.1
2020-01-11T06:52:03,42.805,6.029,-0.008,0.025,-0.004,111.0,116.0,105.0,13.3,1505.4,325.7,-0.7,1.8,2470.407,13.34,0.026,342.3
2020-01-11T06:55:03,42.805,6.029,-0.018,0.034,-0.012,110.0,118.0,107.0,13.4,1505.4,325.7,-0.7,1.8,2470.47,13.34,0.038,332.1
2020-01-11T06:58:03,42.805,6.029,-0.02,0.033,0.001,112.0,116.0,106.0,13.3,1505.4,327.8,-0.7,1.8,2470.422,13.34,0.038,328.8
2020-01-11T07:04:03,42.805,6.029,0.003,0.031,-0.02,111.0,118.0,105.0,13.4,1505.3,325.0,-0.7,1.8,2470.434,13.32,0.031,5.5
2020-01-11T07:07:02,42.805,6.029,0.0,0.037,-0.037,112.0,119.0,105.0,13.4,1505.3,326.8,-0.7,1.8,2470.46,13.32,0.037,0.0
2020-01-11T07:10:03,42.805,6.029,0.015,0.048,-0.023,113.0,118.0,107.0,13.4,1505.3,324.0,-0.7,1.8,2470.512,13.33,0.05,17.4
2020-01-11T07:13:03,42.805,6.029,-0.007,0.025,-0.035,111.0,118.0,106.0,13.4,1505.3,327.2,-0.7,1.8,2470.443,13.33,0.025,344.4
2020-01-11T07:16:03,42.805,6.029,-0.001,0.037,-0.017,110.0,117.0,106.0,13.4,1505.3,325.7,-0.7,1.8,2470.415,13.33,0.037,358.5
2020-01-11T07:19:03,42.805,6.029,0.001,0.035,-0.014,109.0,118.0,107.0,13.3,1505.3,328.1,-0.7,1.9,2470.434,13.33,0.035,1.6
2020-01-11T07:22:03,42.805,6.029,-0.005,0.016,-0.023,110.0,117.0,107.0,13.4,1505.4,325.3,-0.7,1.8,2470.509,13.34,0.016,342.6
2020-01-11T07:25:03,42.805,6.029,-0.006,0.018,-0.011,110.0,118.0,106.0,13.4,1505.3,327.8,-0.7,1.8,2470.423,13.33,0.018,341.6
2020-01-11T07:28:03,42.805,6.029,-0.004,0.037,-0.01,110.0,118.0,106.0,13.4,1505.3,328.4,-0.7,1.8,2470.457,13.33,0.037,353.8
2020-01-11T07:31:03,42.805,6.029,-0.017,0.036,-0.022,111.0,119.0,105.0,13.3,1505.3,323.1,-0.7,1.8,2470.419,13.33,0.039,334.7
2020-01-11T07:34:03,42.805,6.029,0.008,0.035,-0.02,109.0,118.0,107.0,13.3,1505.3,326.5,-0.7,1.8,2470.442,13.33,0.035,12.9
2020-01-11T07:37:03,42.805,6.029,-0.009,0.02,-0.058,110.0,118.0,107.0,13.4,1505.3,324.7,-0.7,1.8,2470.439,13.33,0.021,335.8
2020-01-11T07:40:03,42.805,6.029,0.011,0.012,-0.01,112.0,119.0,107.0,13.4,1505.3,324.1,-0.7,1.8,2470.47,13.33,0.016,42.5
2020-01-11T07:43:03,42.805,6.029,0.024,0.014,-0.013,110.0,117.0,106.0,13.4,1505.3,328.1,-0.7,1.8,2470.435,13.33,0.027,59.7
2020-01-11T07:46:03,42.805,6.029,0.02,0.021,-0.025,111.0,119.0,106.0,13.4,1505.3,323.4,-0.7,1.8,2470.462,13.33,0.028,43.6
2020-01-11T07:49:03,42.805,6.029,0.015,0.036,-0.017,111.0,117.0,105.0,13.4,1505.3,323.0,-0.7,1.9,2470.447,13.33,0.039,22.6
2020-01-11T07:52:03,42.805,6.029,0.006,0.021,-0.014,111.0,118.0,107.0,13.4,1505.3,324.0,-0.7,1.8,2470.445,13.33,0.021,15.9
2020-01-11T07:55:03,42.805,6.029,-0.001,0.019,-0.012,109.0,115.0,105.0,13.4,1505.3,327.7,-0.7,1.8,2470.46,13.33,0.019,357.0
2020-01-11T07:58:03,42.805,6.029,0.004,0.026,-0.033,109.0,116.0,106.0,13.3,1505.3,326.5,-0.7,1.9,2470.462,13.33,0.026,8.7
2020-01-11T08:04:03,42.805,6.029,0.009,0.029,0.016,111.0,116.0,105.0,13.4,1505.3,325.3,-0.8,1.8,2470.504,13.31,0.03,17.2
2020-01-11T08:07:03,42.805,6.029,0.022,0.02,-0.049,108.0,117.0,106.0,13.4,1505.3,324.7,-0.7,1.9,2470.463,13.31,0.029,47.7
2020-01-11T08:10:03,42.805,6.029,-0.001,0.023,-0.012,109.0,117.0,108.0,13.4,1505.3,328.2,-0.6,1.8,2470.47,13.32,0.023,357.5
2020-01-11T08:13:03,42.805,6.029,0.017,0.028,-0.015,110.0,116.0,106.0,13.4,1505.3,325.4,-0.7,1.8,2470.434,13.32,0.032,31.3
2020-01-11T08:16:03,42.805,6.029,0.011,0.023,-0.028,110.0,117.0,106.0,13.3,1505.3,327.3,-0.7,1.8,2470.475,13.32,0.025,25.6
2020-01-11T08:19:03,42.805,6.029,-0.004,0.01,-0.026,109.0,115.0,105.0,13.4,1505.3,325.9,-0.7,1.9,2470.439,13.33,0.01,338.2
2020-01-11T08:22:03,42.805,6.029,0.001,0.027,-0.027,108.0,116.0,105.0,13.4,1505.3,326.3,-0.8,1.8,2470.441,13.33,0.027,2.1
2020-01-11T08:25:03,42.805,6.029,0.024,0.015,-0.049,111.0,115.0,104.0,13.4,1505.3,326.5,-0.7,1.8,2470.459,13.33,0.028,58.0
2020-01-11T08:28:03,42.805,6.029,0.009,0.0,-0.006,110.0,117.0,106.0,13.4,1505.3,324.7,-0.7,1.8,2470.433,13.33,0.009,90.0
2020-01-11T08:31:03,42.805,6.029,-0.008,0.009,-0.043,109.0,115.0,106.0,13.4,1505.3,323.0,-0.7,1.8,2470.468,13.33,0.012,318.4
2020-01-11T08:34:03,42.805,6.029,0.038,0.028,-0.005,110.0,116.0,105.0,13.4,1505.3,325.2,-0.7,1.9,2470.484,13.33,0.047,53.6
2020-01-11T08:37:02,42.805,6.029,0.014,0.023,-0.013,110.0,116.0,107.0,13.3,1505.3,328.2,-0.7,1.8,2470.459,13.33,0.026,31.3
2020-01-11T08:40:03,42.805,6.029,0.007,0.034,-0.013,110.0,115.0,105.0,13.4,1505.3,325.1,-0.7,1.9,2470.408,13.33,0.034,11.6
2020-01-11T08:43:03,42.805,6.029,0.018,0.016,-0.021,110.0,117.0,106.0,13.4,1505.3,326.8,-0.7,1.8,2470.412,13.33,0.024,48.4
2020-01-11T08:46:03,42.805,6.029,0.016,0.014,-0.008,110.0,116.0,106.0,13.4,1505.3,323.3,-0.7,1.8,2470.422,13.33,0.021,48.8
2020-01-11T08:49:03,42.805,6.029,0.013,0.0,-0.035,110.0,117.0,106.0,13.3,1505.3,324.6,-0.7,1.9,2470.423,13.33,0.013,90.0
2020-01-11T08:52:03,42.805,6.029,-0.003,0.017,-0.042,108.0,117.0,105.0,13.4,1505.3,325.6,-0.7,1.8,2470.439,13.33,0.017,350.0
2020-01-11T08:55:03,42.805,6.029,-0.02,0.016,-0.039,111.0,116.0,105.0,13.4,1505.3,327.1,-0.7,1.8,2470.442,13.33,0.025,308.7
2020-01-11T08:58:03,42.805,6.029,-0.007,0.0,-0.027,111.0,116.0,104.0,13.4,1505.3,327.6,-0.8,1.8,2470.47,13.33,0.007,270.0
2020-01-11T09:04:03,42.805,6.029,0.03,0.017,-0.024,113.0,115.0,105.0,13.4,1505.3,325.9,-0.7,1.8,2470.47,13.31,0.034,60.5
2020-01-11T09:07:03,42.805,6.029,0.005,0.016,-0.033,109.0,115.0,106.0,13.3,1505.3,324.4,-0.7,1.8,2470.454,13.31,0.016,17.4
2020-01-11T09:10:03,42.805,6.029,0.004,0.034,-0.01,110.0,117.0,106.0,13.4,1505.3,327.9,-0.7,1.8,2470.473,13.32,0.034,6.7
2020-01-11T09:13:03,42.805,6.029,0.034,0.003,0.014,110.0,117.0,106.0,13.4,1505.3,325.7,-0.7,1.8,2470.46,13.32,0.034,85.0
2020-01-11T09:16:03,42.805,6.029,-0.005,0.009,-0.016,110.0,115.0,105.0,13.4,1505.3,323.0,-0.7,1.8,2470.454,13.32,0.01,330.9
2020-01-11T09:19:03,42.805,6.029,0.012,0.0,-0.022,110.0,117.0,107.0,13.3,1505.3,323.3,-0.7,1.9,2470.432,13.32,0.012,90.0
2020-01-11T09:22:03,42.805,6.029,0.015,0.024,-0.014,108.0,115.0,105.0,13.3,1505.3,325.3,-0.7,1.8,2470.471,13.33,0.028,32.0
2020-01-11T09:25:03,42.805,6.029,0.001,0.01,-0.032,111.0,115.0,105.0,13.3,1505.3,326.9,-0.7,1.8,2470.447,13.33,0.01,5.7
2020-01-11T09:28:03,42.805,6.029,0.014,-0.013,-0.006,109.0,114.0,104.0,13.4,1505.3,325.6,-0.7,1.8,2470.446,13.33,0.019,132.9
2020-01-11T09:31:03,42.805,6.029,0.018,0.012,-0.033,108.0,115.0,105.0,13.4,1505.3,327.5,-0.7,1.8,2470.447,13.33,0.021,56.3
2020-01-11T09:34:03,42.805,6.029,-0.002,0.012,-0.048,109.0,114.0,105.0,13.4,1505.3,327.0,-0.7,1.8,2470.447,13.33,0.012,350.5
2020-01-11T09:37:03,42.805,6.029,0.004,0.009,-0.025,111.0,116.0,104.0,13.4,1505.3,327.0,-0.7,1.8,2470.442,13.33,0.009,24.0
2020-01-11T09:40:03,42.805,6.029,0.026,0.013,0.001,110.0,115.0,104.0,13.4,1505.3,326.9,-0.7,1.8,2470.443,13.33,0.029,63.4
2020-01-11T09:46:02,42.805,6.029,0.009,0.017,-0.023,109.0,116.0,105.0,13.4,1505.3,325.9,-0.7,1.8,2470.481,13.31,0.019,27.9
2020-01-11T09:49:03,42.805,6.029,-0.003,0.021,-0.052,108.0,113.0,105.0,13.4,1505.3,324.4,-0.7,1.8,2470.423,13.31,0.021,351.9
2020-01-11T09:52:03,42.805,6.029,0.018,0.021,-0.012,109.0,115.0,104.0,13.4,1505.3,327.8,-0.7,1.8,2470.425,13.32,0.027,40.6
2020-01-11T09:55:03,42.805,6.029,0.018,0.004,-0.019,110.0,116.0,104.0,13.4,1505.3,324.5,-0.7,1.8,2470.424,13.32,0.018,77.5
2020-01-11T09:58:03,42.805,6.029,0.0,0.026,-0.061,109.0,115.0,103.0,13.4,1505.3,323.6,-0.7,1.8,2470.443,13.32,0.026,0.0
2020-01-11T10:04:03,42.805,6.029,0.006,0.014,-0.02,108.0,114.0,104.0,13.4,1505.3,328.6,-0.8,1.8,2470.477,13.31,0.015,23.2
2020-01-11T10:07:03,42.805,6.029,0.0,0.015,0.0,110.0,115.0,104.0,13.4,1505.3,324.0,-0.7,1.8,2470.462,13.31,0.015,0.0